Location: 22
(39.7117°N, 89.5929°W)
Time: 21:22:26
(UTC-05:00)

Vanguard 3 - Pass Details

Date: 02 February 2023
Orbit: 508 x 3249 km, 33.4° (Epoch: 24 March)

Event Time Altitude Azimuth Distance (km) Brightness Sun altitude
Rises 18:28:48 0° 231° (SW) 3,993 11.9 -13.7°
Reaches altitude 10° 18:31:10 10° 225° (SW) 3,312 11.1 -14.1°
Maximum altitude 18:39:31 48° 154° (SSE) 2,329 9.3 -15.7°
Enters shadow 18:49:14 21° 93° (E) 4,329 10.2 -17.6°
Drops below altitude 10° 18:53:47 10° 87° (E) 5,517 - -18.4°
Sets 18:59:02 0° 83° (E) 6,846 - -19.4°
